Wetbulb
35.98 39.11 41.73 42.55 46.56 46.91 43.38 43.69 41.84 43.49 43.37 46.51 47.82 51.27 52.61 53.49 55.31 60.24 64.49 66.40 67.59 67.76 68.09 68.44 68.34 68.66 69.79 70.75 71.49 73.07 72.97 72.92 73.10 73.36 73.96 74.50 74.31 73.58 73.16 72.86 73.66 72.09 72.75 73.16
31.95 41.83 44.19 43.95 49.04 48.80 46.70 46.58 44.96 44.44 44.30 48.35 51.82 54.58 55.26 56.70 57.88 59.94 63.45 66.61 67.95 68.40 68.59 68.69 68.76 68.67 69.33 69.95 71.02 72.41 72.68 72.96 73.52 73.88 73.94 73.91 74.53 74.48 73.93 73.51 72.50 73.45 73.42 73.44
30.40 42.47 45.54 41.86 43.93 48.00 47.34 46.98 46.17 43.70 46.09 51.28 52.99 55.76 56.93 53.43 55.93 57.58 59.95 65.55 67.85 68.43 68.84 69.34 69.39 69.50 68.88 69.65 70.76 71.43 72.43 72.90 73.56 73.74 74.15 74.33 74.49 74.55 74.41 74.31 74.01 72.41 73.27 73.80
31.11 38.17 34.88 43.40 47.18 47.52 47.84 48.12 48.74 50.95 52.60 54.50 57.80 58.76 59.38 60.85 61.25 61.60 62.34 62.55 62.46 62.59 64.47 68.25 70.16 70.34 70.16 70.13 70.15 70.47 70.81 72.76 73.43 74.05 74.13 74.75 74.52 74.27 74.45 74.98 74.96 74.63 73.54 73.77
32.00 36.38 42.19 43.33 44.35 43.88 41.91 43.71 47.80 48.95 54.88 58.36 58.83 58.48 57.32 59.88 61.36 61.27 62.50 63.21 63.20 63.91 63.87 64.56 66.02 69.50 70.58 70.25 70.21 70.10 70.29 70.70 73.01 73.71 74.38 74.51 74.30 74.55 74.95 75.10 75.00 75.29 75.46 74.97
32.88 34.86 34.52 39.76 45.79 49.01 49.65 38.41 47.68 48.58 48.97 52.49 55.65 49.48 51.65 56.66 60.32 60.77 62.28 63.16 63.95 65.59 66.66 64.97 64.25 65.72 68.82 70.38 70.62 70.27 70.62 71.02 71.80 72.81 73.99 74.18 74.53 74.64 75.47 75.40 75.24 75.64 75.41 76.06
34.74 36.78 39.44 42.14 45.79 50.27 38.72 40.80 47.57 48.18 48.78 48.19 46.33 48.04 50.78 56.70 57.60 60.46 61.32 62.60 63.28 64.17 64.99 65.84 66.33 63.35 64.74 67.54 69.59 71.58 71.84 72.18 72.54 72.48 72.73 74.14 74.34 74.86 74.81 74.92 75.10 74.78 74.88 75.34
33.34 34.79 33.05 44.32 44.65 38.73 41.42 45.90 46.80 47.40 47.93 47.32 48.10 50.32 51.20 55.14 55.73 58.14 59.60 61.63 63.76 64.69 65.72 67.21 68.29 64.69 62.99 63.78 65.47 68.93 71.57 71.67 72.52 73.48 73.47 74.06 73.68 74.08 74.40 74.43 74.33 74.14 74.19 74.44
34.23 35.61 43.57 44.93 45.53 47.49 46.12 44.37 44.15 45.47 47.72 47.95 48.00 49.15 50.92 52.34 52.94 53.50 57.37 58.70 62.24 63.34 65.81 68.83 72.58 67.54 69.17 70.37 70.66 71.68 68.55 70.00 70.80 72.39 72.99 73.56 73.66 73.45 73.68 74.27 74.21 73.88 74.08 73.93
32.95 37.37 39.12 41.59 44.97 44.88 44.77 44.14 44.63 45.99 46.90 48.85 47.34 49.61 49.94 51.00 51.30 51.82 52.79 53.16 58.83 61.83 62.97 65.50 70.23 71.53 71.66 71.92 72.25 72.28 69.92 69.74 70.92 71.09 70.97 71.93 74.06 74.23 74.33 74.38 74.28 74.11 74.14 73.95
34.83 36.40 39.77 42.76 43.81 43.97 44.80 45.92 45.67 46.29 46.30 48.24 48.66 48.38 49.60 49.37 49.86 50.53 51.22 52.68 55.94 59.55 61.44 63.21 68.39 69.08 70.05 70.28 71.37 71.04 71.76 72.37 72.01 72.28 70.60 71.44 63.13 63.51 71.93 72.18 71.44 74.74 74.74 75.04
33.83 39.09 39.20 39.55 42.55 45.10 44.83 44.82 45.80 45.31 45.30 47.00 49.04 48.34 50.05 49.01 49.39 50.14 50.90 51.99 53.79 57.57 61.43 63.02 65.08 68.08 68.90 69.34 70.35 69.76 69.36 70.57 72.46 73.07 71.85 68.89 61.97 58.17 49.14 47.89 46.35 49.97 56.68 66.76
42.79 43.79 42.63 43.06 43.98 45.70 46.09 46.43 47.04 47.00 46.53 45.66 48.45 49.02 49.15 48.29 48.58 51.21 50.34 52.22 55.11 58.18 60.75 62.03 64.65 67.43 68.13 68.44 68.48 68.53 68.12 68.17 67.64 69.73 72.67 71.86 65.96 63.97 60.06 54.55 48.67 45.42 45.26 46.71
46.51 47.61 43.76 45.16 44.97 47.57 46.36 47.78 49.32 49.81 48.71 47.86 48.79 49.21 48.88 48.72 49.67 49.49 49.60 53.16 58.85 60.24 59.84 58.35 62.68 66.76 68.04 68.56 67.67 67.17 67.61 62.70 67.52 69.48 71.15 72.44 72.79 67.09 62.22 61.12 58.66 56.88 51.00 48.50
45.82 47.38 45.99 47.37 47.21 46.95 47.95 47.97 48.04 48.62 48.61 46.65 47.58 48.19 48.47 48.39 50.09 51.02 52.75 55.44 57.62 58.89 58.57 58.72 59.96 64.82 67.47 67.94 67.45 67.52 67.00 67.09 66.20 66.01 65.49 66.52 68.35 68.80 65.06 64.49 60.29 58.14 54.97 51.69
45.48 46.04 47.16 46.94 47.31 47.66 47.48 47.83 46.82 46.06 47.28 47.18 46.97 47.60 48.37 48.65 50.39 51.57 53.65 55.03 54.26 55.30 57.10 56.96 59.61 62.98 65.64 66.47 66.58 66.89 66.04 63.30 64.20 66.42 65.91 64.81 65.33 65.60 66.23 64.27 61.86 61.34 61.16 60.03
42.60 42.23 44.34 44.88 45.06 45.78 46.15 46.57 45.96 46.13 47.14 47.67 48.47 49.15 48.00 50.46 50.31 50.19 51.65 52.41 52.72 52.25 52.21 52.49 53.61 56.50 60.67 65.79 66.00 66.64 65.32 64.60 64.53 65.16 65.48 65.35 65.24 64.61 64.45 63.62 62.30 60.29 58.42 57.26
45.63 45.70 45.88 46.25 45.15 44.48 45.10 45.74 45.79 45.81 46.77 47.91 49.32 49.43 49.22 49.68 49.75 51.33 49.73 50.68 51.32 51.57 51.53 52.82 55.78 57.55 58.55 59.60 62.83 66.62 65.64 64.11 64.35 63.88 63.00 62.24 62.35 62.63 62.56 61.95 60.00 58.82 57.85 53.21
46.63 45.63 45.86 46.50 46.43 45.95 45.28 44.85 44.97 45.37 45.92 47.59 49.98 49.40 49.21 49.09 49.54 50.16 50.56 49.89 50.33 50.73 51.71 52.47 54.87 53.54 53.13 56.28 61.74 62.71 63.88 63.52 62.65 61.79 61.24 58.92 60.14 60.21 60.40 60.27 59.49 59.09 59.43 59.65
45.61 45.80 45.76 45.71 46.38 44.94 44.41 45.19 45.06 44.94 45.76 45.44 45.97 46.68 46.28 47.06 48.37 49.60 49.57 48.03 48.50 51.25 52.92 53.15 53.20 52.33 52.15 53.82 59.31 59.84 61.80 62.38 61.54 61.32 60.88 60.21 58.77 57.80 56.96 53.88 56.16 56.12 56.14 56.24
46.13 45.01 44.82 45.01 44.56 45.04 44.93 44.57 43.68 42.99 43.96 45.26 44.40 44.08 45.33 46.79 46.70 46.54 46.59 46.24 47.67 50.43 52.07 53.02 52.54 52.30 52.35 52.04 52.93 54.41 57.65 58.47 59.59 58.89 58.26 57.27 56.28 55.56 55.09 54.18 53.77 53.18 52.39 52.44
40.96 45.19 45.59 45.31 44.93 44.80 45.23 44.82 44.13 43.68 43.34 43.01 43.70 44.83 43.90 43.41 45.52 46.34 46.30 45.59 47.62 49.59 50.90 51.00 51.49 53.20 52.85 52.80 51.35 51.22 51.83 52.46 54.33 54.71 54.33 54.06 52.75 51.91 51.13 50.58 49.52 48.72 47.85 47.55
41.14 42.74 44.93 45.16 44.74 45.05 45.83 45.53 45.65 45.01 43.97 43.74 43.06 43.47 44.28 43.98 43.87 43.30 42.52 46.47 46.97 48.46 49.45 50.83 51.48 51.33 51.49 51.11 50.95 50.19 49.85 49.15 48.60 48.81 50.56 50.38 49.23 47.69 46.47 45.47 45.08 44.67 44.28 43.99
40.37 42.88 42.08 45.29 42.76 41.04 39.63 40.26 41.49 44.54 45.28 45.31 44.61 44.90 43.90 43.58 45.29 46.57 46.00 45.82 46.39 47.16 47.99 48.29 49.50 50.56 50.05 49.64 49.91 49.72 49.39 48.87 48.23 47.78 47.16 45.37 46.16 46.88 47.16 45.85 43.82 43.02 42.35 41.14
39.65 40.85 41.12 40.16 40.08 39.02 39.13 39.76 39.97 40.45 41.43 40.88 41.04 42.11 41.56 42.92 41.95 43.35 46.84 45.42 45.68 45.40 46.19 47.19 47.40 47.38 46.06 46.13 48.43 48.25 48.29 48.26 47.94 47.22 46.50 45.26 44.32 43.62 43.91 43.20 42.45 42.65 41.66 41.06
36.81 36.24 36.31 37.35 37.35 39.00 38.54 38.40 37.83 38.73 39.18 38.35 39.52 40.79 41.61 41.69 41.71 41.67 41.87 43.18 42.48 43.53 43.79 44.20 44.56 44.58 44.28 44.03 44.21 44.09 46.13 48.29 47.59 46.75 46.04 45.29 44.34 43.68 43.17 42.71 41.72 41.04 41.02 40.28
36.38 38.12 35.96 36.54 37.30 37.35 38.18 37.65 37.76 37.48 37.85 37.68 38.00 39.66 41.15 41.93 41.01 40.62 41.79 41.24 41.47 41.56 42.18 43.29 43.66 43.76 43.71 43.94 43.91 43.96 43.28 42.55 41.38 42.65 42.67 42.82 43.94 44.17 43.20 42.69 42.70 42.16 41.32 40.61
MSLP
1007.27 1003.43 1000.83 998.50 995.89 994.68 995.05 995.05 995.53 995.45 995.03 993.96 993.50 992.84 991.87 991.29 991.25 991.87 992.54 993.48 994.53 995.87 997.13 998.16 999.34 1000.21 1001.20 1002.06 1002.96 1003.94 1005.00 1005.80 1006.30 1006.93 1007.52 1008.27 1008.90 1009.40 1009.89 1010.39 1010.85 1011.24 1011.64 1012.12
1005.97 1001.15 999.20 997.64 995.42 994.53 994.40 994.42 994.80 994.94 994.60 993.60 993.52 993.49 992.22 991.91 991.56 992.08 992.42 993.23 993.98 994.88 996.02 997.26 998.19 999.10 1000.02 1001.04 1001.92 1002.96 1003.79 1004.45 1005.24 1006.02 1006.64 1007.14 1007.70 1008.30 1008.85 1009.36 1009.86 1010.29 1010.61 1010.96
1005.56 1000.97 998.75 997.60 997.14 995.23 994.23 994.80 995.19 995.55 994.59 994.29 994.66 995.34 994.53 993.29 992.55 992.80 993.26 993.48 993.85 994.52 995.14 995.86 997.05 998.09 999.27 1000.06 1001.05 1002.02 1002.85 1003.65 1004.36 1005.06 1005.76 1006.28 1006.80 1007.42 1007.89 1008.39 1008.95 1009.22 1009.57 1009.95
1005.37 1001.85 999.60 999.25 998.49 997.23 996.87 997.73 997.45 996.65 995.44 995.05 996.18 996.37 995.94 995.73 994.98 994.74 994.88 995.21 995.30 995.34 995.97 996.35 997.14 997.83 998.58 999.76 1000.40 1001.11 1001.90 1002.68 1003.47 1004.24 1004.89 1005.43 1006.09 1006.47 1006.92 1007.43 1007.80 1008.16 1008.53 1008.83
1005.80 1002.59 999.61 999.14 999.84 1000.17 999.99 1000.68 1000.15 998.62 996.12 996.32 996.32 995.35 997.48 997.57 997.12 997.16 996.77 996.72 996.70 996.40 996.49 996.68 997.28 997.68 998.39 999.29 999.83 1000.67 1001.27 1001.60 1002.22 1003.10 1003.90 1004.50 1005.01 1005.56 1005.87 1006.39 1006.82 1007.11 1007.36 1007.72
1006.14 1003.99 1002.78 1004.13 1001.91 998.91 999.31 1001.64 1001.89 1000.75 999.66 998.56 997.30 998.55 1000.54 999.82 999.02 998.92 998.29 997.93 997.81 997.68 997.47 997.41 997.88 997.58 998.31 998.96 999.53 999.85 1000.17 1000.64 1001.41 1002.15 1002.78 1003.20 1003.81 1004.35 1004.66 1005.16 1005.58 1006.02 1006.20 1006.43
1006.46 1005.23 1005.68 1006.08 1003.32 1000.89 1002.78 1005.96 1004.21 1003.25 1002.30 1001.69 1001.55 1002.17 1001.62 1000.75 1000.14 1000.00 999.44 999.05 998.76 998.32 998.37 998.45 998.29 998.18 998.61 998.97 999.21 999.12 999.80 1000.30 1000.75 1001.06 1001.57 1002.15 1002.90 1003.43 1003.91 1004.37 1004.85 1005.09 1005.29 1005.46
1007.92 1007.27 1008.46 1007.89 1006.08 1006.47 1008.35 1007.24 1005.93 1005.06 1004.08 1003.61 1003.00 1002.61 1001.93 1001.41 1001.27 1000.81 1000.30 999.78 999.57 999.37 999.14 998.60 998.25 998.27 998.78 999.16 999.15 999.14 999.31 999.91 1000.44 1000.79 1001.24 1001.81 1002.22 1002.72 1003.17 1003.68 1004.06 1004.32 1004.63 1004.84
1011.12 1010.12 1009.55 1009.06 1008.86 1008.46 1008.46 1007.61 1007.37 1006.78 1005.61 1004.63 1003.53 1003.00 1002.47 1002.54 1002.38 1002.04 1001.43 1000.87 1000.47 1000.23 1000.02 999.53 998.99 998.96 999.37 999.85 999.47 999.46 999.53 999.82 1000.05 1000.30 1000.68 1001.08 1001.77 1002.23 1002.81 1003.19 1003.45 1003.75 1004.06 1004.29
1011.47 1010.18 1009.87 1009.00 1008.85 1008.38 1008.15 1008.05 1008.24 1007.75 1006.86 1005.43 1004.39 1003.43 1003.26 1003.08 1002.85 1002.64 1002.15 1001.69 1001.39 1000.95 1000.70 1000.52 1000.09 999.72 999.84 1000.01 1000.01 1000.03 1000.05 1000.02 1000.04 1000.25 1000.60 1000.91 1001.33 1001.87 1002.35 1002.72 1002.99 1003.20 1003.46 1003.73
1011.72 1010.85 1010.13 1008.82 1009.24 1009.58 1008.29 1008.08 1007.90 1007.96 1007.40 1006.05 1004.85 1004.31 1003.86 1003.38 1003.32 1003.20 1002.82 1002.35 1001.81 1001.45 1001.48 1001.34 1000.79 1000.11 999.82 1000.01 1000.14 1000.39 1000.32 1000.06 999.91 999.98 1000.24 1000.74 1001.68 1002.46 1002.40 1002.19 1002.25 1002.36 1002.57 1003.08
1012.18 1011.56 1011.75 1010.76 1010.09 1010.08 1009.60 1008.01 1007.69 1007.28 1005.79 1005.37 1005.28 1004.90 1004.50 1004.28 1004.00 1003.70 1003.44 1002.91 1002.56 1002.49 1002.40 1001.95 1001.37 1000.77 1000.11 999.84 999.98 1000.41 1000.69 1000.53 1000.23 1000.03 1000.11 1000.83 1001.90 1002.96 1003.30 1003.09 1002.63 1002.05 1001.91 1002.30
1010.72 1009.97 1010.30 1009.77 1009.51 1009.20 1008.41 1008.17 1007.58 1006.91 1006.62 1006.31 1005.76 1005.51 1005.10 1005.05 1004.64 1004.28 1003.90 1003.78 1003.51 1003.38 1003.07 1002.62 1002.01 1001.38 1000.61 1000.19 1000.24 1000.40 1000.62 1000.45 1000.21 1000.08 1000.06 1000.40 1001.33 1001.89 1002.77 1003.59 1003.37 1003.30 1003.16 1002.99
1010.46 1009.13 1009.00 1008.76 1008.51 1008.27 1008.43 1007.84 1007.25 1006.25 1006.34 1006.51 1006.07 1005.67 1005.48 1005.12 1004.85 1004.83 1004.73 1004.38 1003.92 1003.66 1003.21 1002.73 1002.20 1001.52 1000.84 1000.45 1000.44 1000.45 1000.36 1000.14 999.90 999.60 999.61 999.85 1000.21 1001.08 1001.96 1002.58 1003.21 1004.06 1004.18 1004.17
1010.87 1009.83 1009.18 1008.36 1007.60 1007.28 1007.11 1007.11 1007.18 1007.53 1006.84 1006.24 1005.99 1006.08 1005.72 1005.55 1005.20 1004.82 1004.82 1004.64 1004.42 1004.08 1003.62 1003.13 1002.41 1001.66 1000.78 1000.41 1000.39 1000.42 1000.29 1000.03 999.78 999.51 999.63 999.56 999.83 1000.56 1001.49 1002.28 1003.05 1003.88 1004.45 1004.67
1011.20 1010.45 1009.55 1008.65 1008.11 1007.45 1006.72 1007.32 1007.27 1006.57 1005.72 1006.20 1006.25 1006.18 1005.76 1005.52 1005.53 1005.24 1004.98 1004.77 1004.85 1004.59 1004.17 1003.71 1002.57 1001.42 1000.69 1000.46 1000.38 1000.40 1000.32 1000.07 1000.12 999.79 999.98 1000.22 1000.42 1000.64 1001.28 1002.15 1002.98 1003.79 1004.20 1004.45
1012.44 1011.47 1010.73 1010.25 1009.92 1009.15 1008.67 1008.19 1007.72 1007.77 1007.71 1007.12 1006.18 1005.73 1005.34 1005.30 1005.49 1005.38 1005.05 1004.73 1004.49 1004.49 1004.06 1003.47 1002.69 1001.63 1000.78 1000.25 1000.22 1000.24 1000.31 1000.24 1000.19 1000.33 1000.26 1000.52 1000.89 1001.42 1001.62 1002.17 1003.05 1003.88 1004.19 1004.39
1014.38 1013.56 1012.74 1012.07 1011.41 1010.65 1010.04 1009.27 1008.43 1007.37 1006.29 1005.53 1004.74 1004.66 1005.02 1005.25 1005.45 1005.33 1004.99 1004.80 1004.32 1003.88 1003.56 1003.22 1002.44 1001.68 1001.04 1000.45 999.99 1000.00 1000.02 1000.06 1000.32 1000.59 1000.80 1001.09 1001.40 1001.52 1002.15 1002.71 1003.37 1003.97 1004.39 1004.47
1014.57 1014.23 1013.77 1013.02 1012.61 1012.05 1011.23 1010.33 1009.52 1008.48 1006.99 1005.50 1004.17 1004.60 1005.09 1005.44 1005.42 1005.42 1005.38 1004.94 1004.46 1004.06 1003.75 1003.30 1002.70 1002.05 1001.53 1001.03 999.62 999.63 999.73 1000.00 1000.40 1001.00 1001.38 1001.74 1002.17 1002.70 1003.01 1003.36 1004.05 1004.51 1004.70 1004.86
1014.60 1014.30 1014.02 1013.63 1013.17 1012.61 1011.97 1011.39 1010.58 1009.49 1008.61 1007.53 1006.61 1006.25 1006.35 1006.36 1006.11 1005.75 1005.32 1005.11 1005.12 1004.98 1004.38 1003.83 1002.99 1002.53 1002.28 1001.85 1000.86 1000.09 999.91 1000.22 1000.88 1001.40 1001.78 1002.04 1002.52 1003.27 1004.08 1004.38 1004.56 1005.13 1005.63 1005.93
1014.57 1014.32 1014.16 1013.91 1013.55 1013.16 1012.69 1012.23 1011.70 1011.12 1010.29 1009.15 1008.53 1008.37 1008.28 1007.89 1007.18 1007.04 1006.32 1006.04 1006.33 1005.81 1005.32 1004.46 1003.75 1003.38 1003.13 1002.45 1001.99 1001.58 1001.49 1001.52 1001.35 1002.21 1003.25 1003.29 1003.36 1003.93 1004.28 1004.85 1005.51 1005.93 1006.52 1006.93
1014.20 1014.19 1013.95 1013.89 1013.72 1013.48 1013.34 1012.99 1012.64 1012.26 1011.86 1011.35 1010.80 1010.33 1010.05 1009.39 1008.74 1008.26 1007.86 1008.12 1008.00 1007.24 1006.22 1005.17 1004.85 1004.60 1003.96 1002.96 1003.12 1003.11 1003.13 1002.95 1003.38 1003.60 1004.14 1004.12 1004.79 1005.13 1005.44 1005.95 1006.13 1007.02 1007.41 1007.70
1014.02 1013.80 1013.64 1013.73 1013.64 1013.49 1013.33 1013.21 1013.12 1013.03 1012.86 1012.56 1012.03 1011.73 1011.60 1011.43 1010.65 1009.75 1009.21 1009.37 1008.83 1008.31 1007.85 1006.95 1006.38 1005.56 1004.68 1004.08 1003.63 1003.75 1004.37 1004.52 1005.30 1005.76 1005.43 1006.00 1006.45 1006.15 1006.86 1008.05 1007.64 1008.21 1008.61 1008.64
1014.26 1014.05 1013.83 1013.64 1013.56 1013.49 1013.31 1013.04 1012.90 1012.99 1013.01 1012.84 1012.35 1012.25 1011.75 1011.40 1011.38 1010.91 1011.07 1010.48 1010.02 1009.71 1009.44 1008.91 1008.29 1007.10 1006.29 1006.14 1005.51 1005.24 1005.90 1006.89 1008.03 1008.01 1006.29 1006.79 1008.29 1008.14 1008.23 1009.04 1009.34 1009.94 1009.36 1009.71
1014.54 1014.48 1014.26 1014.14 1014.12 1013.97 1013.71 1013.48 1013.19 1013.13 1013.02 1012.91 1012.75 1012.26 1011.76 1011.23 1010.73 1010.92 1011.30 1011.27 1010.93 1010.72 1010.05 1009.76 1008.97 1008.01 1008.07 1008.17 1007.54 1008.07 1007.90 1008.56 1007.84 1007.90 1007.59 1009.04 1010.14 1009.09 1009.89 1011.69 1011.27 1011.65 1010.33 1010.28
1014.85 1014.86 1014.80 1014.39 1014.35 1014.20 1013.89 1013.79 1013.79 1013.74 1013.54 1013.35 1013.06 1012.69 1012.33 1011.84 1011.38 1011.12 1010.89 1010.62 1010.64 1010.54 1010.71 1010.25 1009.24 1009.11 1009.18 1009.10 1009.12 1009.33 1008.81 1009.46 1009.28 1009.59 1010.14 1010.49 1011.12 1011.25 1011.30 1012.23 1012.22 1011.83 1011.46 1011.21
1015.11 1014.93 1015.01 1014.79 1014.62 1014.43 1014.20 1014.17 1014.15 1014.36 1014.17 1013.98 1013.77 1013.36 1012.91 1012.58 1012.21 1011.95 1011.55 1011.12 1010.98 1010.91 1010.72 1010.40 1010.08 1010.09 1010.11 1010.39 1010.54 1010.26 1010.62 1010.90 1010.52 1011.05 1011.94 1012.20 1012.19 1012.09 1011.97 1012.15 1012.23 1012.65 1012.79 1012.12
Wind_Speed
21 28 26 24 12 14 14 14 14 11 7 9 9 12 9 5 10 17 25 28 27 25 22 21 20 20 18 18 19 20 19 19 19 18 18 16 16 16 15 15 13 14 14 10
25 19 18 18 6 7 13 17 7 8 8 8 6 10 5 6 14 17 23 28 28 28 27 23 22 21 19 19 20 20 20 20 19 17 17 18 17 16 16 15 15 14 15 15
8 6 6 5 14 7 7 7 9 11 11 3 8 10 15 7 15 10 9 20 24 26 25 22 22 21 20 19 17 18 18 18 18 17 17 17 16 16 16 16 15 17 16 16
8 8 7 9 20 16 19 22 20 12 10 14 16 15 20 17 16 18 16 13 9 8 7 8 12 16 15 13 16 17 17 17 16 16 17 16 16 16 16 14 16 16 16 16
3 4 4 12 21 14 6 17 22 20 5 17 17 26 19 16 15 12 11 7 6 8 9 9 7 9 14 14 15 15 16 17 16 17 16 16 16 16 16 14 14 15 15 17
5 2 5 13 28 30 5 19 22 21 22 16 11 16 5 11 11 11 12 9 9 7 8 10 5 7 9 12 12 15 16 15 15 15 17 18 17 17 15 15 15 13 15 16
5 3 6 22 29 17 12 5 12 16 15 16 15 3 4 6 14 10 11 12 8 9 8 5 4 6 8 7 9 11 7 9 12 16 17 17 16 15 14 14 13 14 14 14
8 7 6 17 12 11 5 10 17 14 11 9 7 9 11 14 15 15 17 16 15 12 10 7 6 7 6 4 3 4 8 9 8 10 11 11 15 13 14 14 13 13 13 11
4 3 5 1 4 4 8 10 14 16 16 12 7 7 10 10 12 13 13 13 13 11 11 9 12 9 11 7 6 3 4 6 7 7 9 9 11 11 9 11 11 10 10 10
8 4 11 14 7 9 14 14 13 12 16 15 10 8 8 8 10 10 11 12 10 13 14 14 6 8 7 7 7 7 5 4 2 6 6 7 7 8 9 9 10 9 9 9
9 6 12 3 8 16 23 18 17 13 9 12 12 13 6 7 8 8 8 10 10 10 10 11 11 6 6 6 6 6 6 6 6 4 6 4 5 2 4 3 7 9 9 8
5 13 13 20 21 20 18 20 18 13 17 11 8 9 8 7 6 6 8 9 11 8 7 9 10 8 7 7 7 6 5 5 4 4 3 6 6 4 12 11 9 4 6 8
9 8 12 19 19 21 19 18 20 12 10 10 6 6 7 4 5 7 8 8 9 8 7 6 8 8 6 6 5 5 5 5 4 4 4 7 6 6 7 5 10 14 13 13
19 13 6 14 9 7 7 12 10 10 8 7 5 3 4 5 4 6 7 7 8 8 11 8 7 8 5 4 5 5 6 7 5 4 5 5 7 6 7 7 6 3 8 6
20 16 7 9 11 12 9 10 9 9 8 7 6 6 6 5 5 5 5 5 6 7 8 10 9 10 7 4 4 6 4 3 2 2 3 1 4 7 7 7 7 6 3 3
20 22 19 18 15 15 13 6 2 6 6 6 7 7 8 7 5 3 2 4 3 6 6 7 8 7 8 5 6 5 4 5 3 3 4 4 4 7 7 7 7 5 4 4
21 24 18 20 18 19 18 16 15 9 5 5 6 6 6 2 3 3 3 1 5 3 3 4 8 10 9 6 6 4 3 4 4 2 4 5 6 5 7 8 7 4 3 1
9 12 16 16 15 16 16 17 17 18 13 11 9 7 6 7 4 2 3 3 3 4 7 9 9 8 7 7 5 5 4 4 3 4 4 5 5 7 7 7 6 5 3 1
7 8 10 14 14 12 13 15 16 18 20 19 14 10 11 10 7 6 4 9 11 9 9 7 13 11 10 15 7 2 4 7 7 6 8 9 8 6 7 7 6 5 5 5
7 7 7 8 11 14 14 15 17 19 19 20 19 17 16 12 9 9 11 14 11 7 9 7 8 11 10 15 14 6 6 9 8 8 7 10 10 9 8 9 8 8 7 6
2 3 6 7 9 10 11 13 16 18 20 21 21 20 15 12 15 13 12 11 15 15 11 13 9 7 7 10 12 10 10 9 9 8 7 7 9 9 10 10 9 9 8 8
2 4 2 1 3 5 6 7 10 11 14 17 18 17 17 18 14 12 16 11 8 17 11 10 10 14 10 18 12 12 13 13 10 9 8 8 9 10 9 10 11 9 8 8
6 4 3 3 3 3 2 3 3 5 6 6 8 9 6 5 8 11 13 14 9 14 9 10 17 21 20 11 12 14 14 16 13 11 11 12 9 12 12 9 11 10 9 9
6 6 5 4 4 4 6 4 3 4 4 3 5 4 4 1 1 6 7 12 14 10 9 11 12 18 20 11 12 14 14 13 9 8 11 17 10 9 11 11 9 7 9 10
6 6 6 7 5 2 4 4 5 6 6 6 5 8 1 4 7 4 5 3 2 7 6 10 15 20 11 9 11 11 12 10 10 9 14 11 9 12 12 8 8 6 8 8
5 4 2 5 4 1 3 4 3 3 4 4 6 7 6 5 5 6 5 5 4 3 4 4 8 9 9 10 12 11 9 9 11 11 10 9 8 7 7 4 4 5 6 6
4 6 5 6 5 3 3 3 4 4 4 4 5 6 7 7 5 4 6 6 5 5 6 7 7 6 7 9 10 11 12 10 13 11 9 8 6 4 4 3 4 5 5 5
Wind_Direction
257 263 271 261 251 208 202 191 193 222 203 247 263 275 260 181 143 157 173 177 180 182 185 186 189 193 189 190 187 184 188 193 197 197 198 199 201 207 208 208 208 213 212 204
286 256 226 242 242 266 211 201 148 188 240 238 251 292 97 102 138 158 168 177 181 181 181 182 186 190 188 188 188 186 191 196 196 195 197 202 204 202 205 207 210 211 215 213
267 314 187 69 355 7 203 162 186 201 227 151 57 348 20 10 87 105 118 182 184 184 182 182 184 186 188 190 184 189 192 196 196 197 198 203 202 205 205 208 206 215 217 219
265 310 147 129 35 36 51 38 14 347 335 112 107 76 48 33 55 71 77 76 80 112 129 158 184 185 189 180 190 192 194 193 196 195 200 203 202 205 210 206 209 212 218 221
264 268 158 23 5 344 1 38 16 2 93 121 114 72 36 16 34 43 55 52 59 73 88 92 103 165 177 184 189 193 202 200 195 195 197 201 204 204 209 210 214 216 217 219
316 336 68 3 336 335 142 40 8 16 28 32 33 78 17 346 23 34 46 44 45 45 64 68 57 111 159 189 190 202 204 203 197 192 199 204 202 205 207 211 215 216 222 221
247 98 76 355 341 347 64 39 19 11 29 35 56 25 277 3 31 31 34 42 29 34 57 52 56 93 109 141 198 209 216 208 201 198 201 205 203 207 207 210 216 220 224 225
338 58 54 348 353 59 300 358 9 360 15 33 38 26 30 35 26 20 25 25 26 30 20 3 33 92 97 92 194 179 172 173 191 203 206 203 203 204 208 207 213 220 223 229
23 184 179 66 307 282 9 11 5 351 352 341 33 26 35 33 23 15 18 18 20 23 20 17 47 58 64 10 12 17 145 189 205 197 191 185 192 199 197 201 209 216 219 225
321 134 3 316 302 360 357 348 341 336 334 354 355 24 30 29 21 12 9 12 4 21 22 10 5 78 85 54 38 34 350 307 225 201 197 198 198 192 193 194 205 212 215 222
285 283 329 1 341 336 321 324 318 316 314 341 357 356 20 21 12 3 358 2 4 12 9 1 351 23 75 74 64 32 355 327 290 231 204 164 79 12 219 181 215 200 208 203
278 286 277 271 287 289 296 301 297 309 313 333 356 352 350 0 357 355 351 356 357 355 356 351 349 341 2 32 47 41 2 338 304 273 198 138 143 115 46 34 19 38 202 162
300 257 238 260 270 278 283 283 279 283 275 287 322 345 340 327 333 353 352 358 350 333 328 333 338 324 339 359 8 355 324 314 319 274 195 161 163 154 131 36 60 47 47 84
347 347 271 257 265 292 251 261 271 286 278 255 235 272 300 317 337 354 348 326 337 339 334 328 323 301 293 8 342 318 317 294 275 265 218 187 178 160 137 143 127 84 23 42
356 357 320 311 319 301 252 234 271 258 242 250 244 239 261 269 293 309 321 329 324 317 313 324 323 308 303 327 331 313 316 312 311 70 25 128 138 143 146 135 129 130 128 43
1 15 13 11 2 7 13 30 329 318 323 286 248 236 234 241 238 265 302 303 294 289 323 320 306 315 313 307 294 304 290 273 264 113 94 73 72 113 126 125 126 139 143 142
14 12 11 22 20 24 28 18 16 13 322 275 265 273 258 200 102 30 327 86 116 74 342 319 309 307 303 285 264 266 261 256 207 148 116 114 105 93 112 122 121 115 117 119
28 24 18 16 22 22 18 15 11 359 352 333 242 200 112 83 73 30 11 3 53 56 18 349 342 338 344 354 311 240 225 211 169 142 98 86 93 112 117 118 113 117 133 177
23 10 28 40 25 14 20 21 14 12 12 10 36 84 84 72 72 66 57 51 35 21 359 339 15 21 13 344 349 229 202 137 119 113 114 110 92 80 87 93 87 76 70 57
39 24 27 35 40 35 30 23 16 16 17 26 33 40 40 29 33 54 59 52 21 0 348 355 28 32 23 16 8 34 71 112 110 116 126 119 109 98 86 70 78 68 59 51
129 30 15 33 46 39 39 44 41 30 19 21 27 31 24 28 37 30 41 47 3 357 3 38 44 44 38 51 41 37 54 62 90 91 87 91 89 92 94 92 77 69 60 49
16 195 208 36 65 55 48 53 55 55 50 41 31 24 20 20 21 32 40 27 2 3 9 29 33 45 65 69 65 56 57 53 50 62 86 71 76 76 76 68 77 72 66 58
353 352 217 228 205 181 177 130 98 68 59 54 69 61 37 48 30 31 33 0 358 7 13 13 24 31 39 52 71 73 61 64 47 36 55 71 63 75 69 62 69 70 63 61
360 12 25 101 90 58 47 38 70 169 190 208 298 225 304 227 147 76 56 359 7 9 37 30 24 40 43 33 52 61 63 66 64 50 72 48 42 56 72 66 63 63 75 69
56 34 24 29 39 47 48 1 54 39 25 25 44 357 51 26 9 141 166 145 298 338 20 41 56 47 51 45 48 61 74 71 68 60 60 65 57 52 57 47 50 40 61 58
70 64 12 17 17 15 48 35 46 21 39 31 28 12 5 4 10 13 4 8 102 142 117 68 43 57 58 51 55 51 57 62 60 58 59 62 62 70 85 80 77 66 71 76
51 58 28 10 13 9 49 30 78 45 32 28 42 12 22 14 6 40 10 3 22 63 63 56 63 75 78 69 60 65 67 65 65 69 65 55 50 53 68 87 75 53 39 52